Content
SEND FEEDBACK

Daily
Averages
Monthly
Summary
United States of America

NEWKIRK, NEW MEXICO


Home > North America > United States > New Mexico
Elevation: 4587 feet     Latitude: 35 04N     Longitude: 104 16W

WEATHER
 
SELECT A DAY
Number of Records: 149,331;   Date Range: 1/2/95 - 8/28/14
 
SHARE

PRINT THIS DATA

[ ← Previous Day ]
WEATHER ALMANAC - FEBRUARY 13, 2013
[ Next Day → ]
[ °C ]   °F
Weather ElementAverageHighLow
Temperature38 °F54 °F (4:53 pm)24.1 °F (3:53 am)
Dewpoint20.5 °F27 °F (11:53 pm)15.1 °F (3:53 pm)
Humidity54 %79 % (10:53 pm)22 % (3:53 pm)
Barometer29.99 in30.07 in (6:53 am)29.88 in (4:53 pm)
Wind Speed4.9 mph10.4 mph (6:53 pm)
Weather ElementAverage
Visibility10 mi
Wind DirectionSSE (168.6 °)

Weather ElementTotal
Precipitation---
Heating Degree Days26 (Base 65)
Averaged from 22 records on February 13, 2013
WEATHER CONDITIONS BREAKOUT
WIND DIRECTION BREAKOUT
WEATHER BY HOUR - FEBRUARY 13, 2013
[ °C ]   °F
Local TimeTemperatureDewpointHumidityBarometerVisibilityWind DirectionWind SpeedGust SpeedPrecipitationEventsConditions
1:53 AM28.0 °F19.0 °F69 %30.06 in10.0 miCalmClear
2:53 AM25.0 °F19.0 °F78 %30.05 in10.0 miCalmClear
3:53 AM24.1 °F17.1 °F75 %30.03 in10.0 miWSW (250°)5.8 mphClear
5:53 AM26.1 °F16.0 °F66 %30.04 in10.0 miWest (270°)6.9 mphClear
6:53 AM26.1 °F16.0 °F66 %30.07 in10.0 miWest (280°)6.9 mphClear
7:53 AM30.0 °F19.0 °F64 %30.07 in10.0 miNW (310°)5.8 mphClear
8:53 AM32.0 °F19.9 °F61 %30.05 in10.0 miSW (220°)3.5 mphClear
9:53 AM37.0 °F21.9 °F54 %30.04 in10.0 miWNW (290°)4.6 mphClear
10:53 AM42.1 °F19.9 °F41 %30.02 in10.0 miWest (280°)5.8 mphClear
11:53 AM46.9 °F17.1 °F30 %30.00 in10.0 miCalmClear
12:53 PM48.9 °F18.0 °F29 %29.94 in10.0 miSouth (170°)4.6 mphClear
1:53 PM51.1 °F19.0 °F28 %29.91 in10.0 miSW (220°)6.9 mphClear
2:53 PM52.0 °F17.1 °F25 %29.90 in10.0 miWSW (240°)4.6 mphClear
3:53 PM53.1 °F15.1 °F22 %29.89 in10.0 miWest (280°)5.8 mphClear
4:53 PM54.0 °F15.1 °F22 %29.88 in10.0 miCalmClear
5:53 PM44.1 °F25.0 °F47 %29.91 in10.0 miENE (60°)8.1 mphClear
6:53 PM41.0 °F26.1 °F55 %29.95 in10.0 miNE (40°)10.4 mphClear
7:53 PM39.0 °F26.1 °F60 %29.96 in10.0 miENE (60°)3.5 mphClear
8:53 PM36.0 °F26.1 °F67 %29.97 in10.0 miENE (70°)6.9 mphClear
9:53 PM34.0 °F26.1 °F73 %29.98 in10.0 miCalmClear
10:53 PM32.0 °F26.1 °F79 %29.99 in10.0 miNNW (330°)6.9 mphClear
11:53 PM33.1 °F27.0 °F78 %29.98 in10.0 miNNW (340°)10.4 mphClear
Hourly data recorded from KTCC, located miles away from Newkirk, New Mexico







STORIES FROM OUR PARTNERS